This demonstration page uses our WeatherBlox Daily Observations layout. Learn more.

Left ArrowRight Arrow

53.62937, 11.41316

Hourly Observations for January 30, 2019

Temp ( °F °C ) Dew Point ( °F °C ) Humidity (%) Winds ( mph kmh ) Pressure ( in mb ) Visibility ( mi km ) Precip ( " mm )
6:50 am 06:50 Mostly Clear 30 -1 28 -2 93 93 E 6 9 29.50 999 7 11 N/A
7:20 am 07:20 Mostly Clear 30 -1 27 -3 86 86 E 6 9 29.50 999 7 11 N/A
7:50 am 07:50 Mostly Clear 30 -1 27 -3 86 86 ESE 7 11 29.50 999 7 11 N/A
8:20 am 08:20 Mostly Sunny 30 -1 27 -3 86 86 ESE 8 13 29.50 999 7 11 N/A
8:50 am 08:50 Mostly Sunny 30 -1 27 -3 86 86 ESE 5 7 29.50 999 7 11 N/A
9:20 am 09:20 Mostly Sunny 32 0 27 -3 80 80 ESE 7 11 29.50 999 7 11 N/A
9:50 am 09:50 Mostly Sunny 32 0 27 -3 80 80 ESE 6 9 29.50 999 7 11 N/A
10:20 am 10:20 Mostly Sunny 34 1 27 -3 75 75 ESE 7 11 29.50 999 7 11 N/A
10:50 am 10:50 Mostly Sunny 34 1 27 -3 75 75 ESE 8 13 29.50 999 7 11 N/A
11:20 am 11:20 Mostly Sunny 34 1 27 -3 75 75 ESE 8 13 29.50 999 7 11 N/A
11:50 am 11:50 Mostly Sunny 34 1 27 -3 75 75 ESE 9 15 29.50 999 7 11 N/A
12:20 pm 12:20 Mostly Sunny 36 2 27 -3 70 70 ESE 8 13 29.50 999 7 11 N/A
12:50 pm 12:50 Mostly Sunny 36 2 27 -3 70 70 ESE 12 19 29.50 999 7 11 N/A
1:20 pm 13:20 Mostly Sunny 36 2 27 -3 70 70 ESE 12 19 29.47 998 7 11 N/A
1:50 pm 13:50 Mostly Sunny 37 3 27 -3 65 65 E 10 17 29.47 998 7 11 N/A
2:20 pm 14:20 Mostly Sunny 36 2 27 -3 70 70 E 10 17 29.44 997 7 11 N/A
4:20 pm 16:20 Mostly Sunny 36 2 25 -4 65 65 E 12 19 29.44 997 7 11 N/A
4:50 pm 16:50 Mostly Sunny 36 2 25 -4 65 65 E 10 17 29.44 997 7 11 N/A
5:20 pm 17:20 Mostly Clear 34 1 25 -4 70 70 E 9 15 29.44 997 7 11 N/A
5:50 pm 17:50 Mostly Clear 34 1 25 -4 70 70 E 8 13 29.44 997 7 11 N/A
6:20 pm 18:20 Mostly Clear 34 1 25 -4 70 70 E 9 15 29.44 997 7 11 N/A
6:50 pm 18:50 Mostly Clear 34 1 25 -4 70 70 ESE 9 15 29.44 997 7 11 N/A

Powered by AerisWeather